Location: Peterborough
(44.3091°N, 78.3197°W)
Time: 08:10:23
(UTC-05:00)

A-11 Canister half - Pass Details

Date: 15 December 2023
Orbit: 1512 x 1687 km, 47.2° (Epoch: 25 February)

Event Time Altitude Azimuth Distance (km) Brightness Sun altitude
Rises 18:33:21 0° 169° (SSE) 4,641 11.6 -20.3°
Reaches altitude 10° 18:39:17 10° 139° (SE) 3,684 10.7 -21.4°
Enters shadow 18:40:54 11° 129° (SE) 3,587 10.6 -21.6°
